EW1296 Weather Reports


time (UTC)temp
C
wind
direction
speed
KPH
gust
KPH
rain 1hr
cm
rain 24hr
cm
rain mn
cm
humidity
%
barometer
mb
20260831052517 23 0 3.2 9.7 0.00 0.03 0.00 77 1018.9
20260831052037 23 315 3.2 12.9 0.00 0.03 0.00 77 1019.0
20260831051518 24 315 4.8 11.3 0.00 0.03 0.00 78 1019.1
20260831051017 24 293 4.8 9.7 0.00 0.03 0.00 78 1019.2
20260831050517 24 315 3.2 9.7 0.00 0.03 0.00 79 1019.2
20260831050017 24 315 3.2 8.0 0.00 0.03 0.00 79 1019.2
20260831045517 24 270 3.2 8.0 0.00 0.03 0.00 80 1019.2
20260831045017 24 338 3.2 6.4 0.00 0.03 0.00 80 1019.1
20260831044517 24 315 3.2 8.0 0.00 0.03 0.00 81 1019.0
20260831044018 24 338 3.2 6.4 0.00 0.03 0.00 81 1019.1
20260831043518 24 0 3.2 6.4 0.00 0.03 0.00 82 1019.1
20260831043017 24 338 3.2 8.0 0.00 0.03 0.00 82 1019.0
20260831042517 24 315 3.2 6.4 0.00 0.03 0.00 83 1019.0
20260831042017 24 315 3.2 12.9 0.00 0.03 0.00 83 1018.9
20260831041538 24 338 3.2 11.3 0.00 0.03 0.00 84 1018.8
20260831041017 24 315 1.6 6.4 0.00 0.03 0.00 84 1018.9
20260831040517 24 338 1.6 4.8 0.00 0.03 0.00 85 1018.8
20260831040017 24 315 3.2 6.4 0.00 0.03 0.03 85 1018.9
20260831035516 24 315 3.2 6.4 0.00 0.03 0.03 85 1018.8
20260831035015 24 315 3.2 6.4 0.00 0.03 0.03 86 1018.8
20260831034515 25 315 1.6 6.4 0.00 0.03 0.03 86 1018.8
20260831034015 25 315 3.2 4.8 0.00 0.03 0.03 85 1018.8
20260831033537 25 315 1.6 4.8 0.00 0.03 0.03 85 1018.8
20260831033016 25 315 1.6 4.8 0.00 0.03 0.03 85 1018.8
20260831032515 25 293 1.6 4.8 0.00 0.03 0.03 85 1018.8
20260831032016 25 293 1.6 4.8 0.00 0.03 0.03 85 1018.6
20260831031515 25 248 1.6 4.8 0.00 0.03 0.03 84 1018.6
20260831031036 25 248 1.6 3.2 0.00 0.03 0.03 84 1018.5
20260831030515 25 0.0 3.2 0.00 0.03 0.03 84 1018.5
20260831030015 25 0.0 3.2 0.00 0.03 0.03 84 1018.5
20260831025516 25 0.0 3.2 0.00 0.03 0.03 84 1018.6
20260831025015 25 0.0 4.8 0.03 0.03 0.03 84 1018.8
20260831024515 25 0 1.6 4.8 0.03 0.03 0.03 84 1019.0
20260831024015 25 338 3.2 9.7 0.03 0.03 0.03 85 1019.1
20260831023515 25 0 3.2 9.7 0.03 0.03 0.03 85 1019.0
20260831023037 25 338 3.2 9.7 0.03 0.03 0.03 85 1019.1
20260831022537 25 338 1.6 4.8 0.03 0.03 0.03 86 1019.2
20260831022017 25 338 1.6 4.8 0.03 0.03 0.03 85 1019.2
20260831021517 25 338 3.2 8.0 0.03 0.03 0.03 85 1019.2
20260831021017 25 315 1.6 6.4 0.03 0.03 0.03 85 1019.2
20260831020517 25 0.0 6.4 0.03 0.03 0.03 85 1019.2
20260831020017 25 338 1.6 6.4 0.03 0.03 0.03 85 1019.2
20260831015518 25 338 1.6 4.8 0.03 0.03 0.03 84 1019.1
20260831015017 25 338 1.6 3.2 0.00 0.00 0.00 84 1019.1
20260831014517 25 338 1.6 6.4 0.00 0.00 0.00 84 1019.1
20260831014018 25 248 1.6 4.8 0.00 0.00 0.00 84 1019.1
20260831013517 25 0.0 3.2 0.00 0.00 0.00 84 1019.0
20260831013038 25 248 1.6 3.2 0.00 0.00 0.00 84 1019.0
20260831012538 25 0.0 4.8 0.00 0.00 0.00 84 1018.9
20260831012018 25 0.0 3.2 0.00 0.00 0.00 84 1018.8
20260831011538 25 248 1.6 3.2 0.00 0.00 0.00 83 1018.9
20260831011017 25 248 1.6 3.2 0.00 0.00 0.00 83 1018.8
20260831010517 25 0.0 3.2 0.00 0.00 0.00 83 1018.8
20260831010018 25 248 1.6 4.8 0.00 0.00 0.00 82 1018.7
20260831005517 25 0.0 1.6 0.00 0.00 0.00 82 1018.6
20260831005018 25 0.0 1.6 0.00 0.00 0.00 82 1018.5
20260831004516 25 248 1.6 3.2 0.00 0.00 0.00 82 1018.6
20260831004037 25 248 1.6 3.2 0.00 0.00 0.00 81 1018.5
20260831003517 25 248 1.6 4.8 0.00 0.00 0.00 81 1018.5
20260831003037 25 0.0 3.2 0.00 0.00 0.00 80 1018.4
20260831002517 25 0.0 4.8 0.00 0.00 0.00 80 1018.4
20260831002019 25 248 1.6 6.4 0.00 0.00 0.00 79 1018.4
20260831001517 25 248 1.6 4.8 0.00 0.00 0.00 78 1018.3
20260831001018 26 248 1.6 6.4 0.00 0.00 0.00 78 1018.3
20260831000537 26 248 3.2 6.4 0.00 0.00 0.00 77 1018.2
20260831000018 26 248 4.8 8.0 0.00 0.00 0.00 77 1018.2
20260830235038 26 248 3.2 8.0 0.00 0.00 0.00 76 1018.1
20260830234518 26 248 1.6 4.8 0.00 0.00 0.00 76 1018.0
20260830234038 26 0.0 4.8 0.00 0.00 0.00 75 1017.9
20260830233517 26 248 1.6 3.2 0.00 0.00 0.00 75 1017.9
20260830233037 26 0.0 4.8 0.00 0.00 0.00 75 1017.9
20260830232537 26 0.0 3.2 0.00 0.00 0.00 75 1017.9
20260830232018 26 0.0 0.0 0.00 0.00 0.00 75 1017.9
20260830231517 26 0.0 3.2 0.00 0.00 0.00 75 1017.9
20260830231017 26 248 1.6 4.8 0.00 0.00 0.00 74 1017.9
20260830230517 26 248 3.2 6.4 0.00 0.00 0.00 74 1018.0
20260830230018 27 248 3.2 6.4 0.00 0.00 0.00 74 1017.9
20260830225517 27 248 1.6 6.4 0.00 0.00 0.00 73 1017.9
20260830225018 27 248 3.2 6.4 0.00 0.00 0.00 73 1017.9
20260830224518 27 248 3.2 6.4 0.00 0.00 0.00 72 1017.9
20260830224017 27 248 3.2 6.4 0.00 0.00 0.00 72 1018.1
20260830223518 27 248 1.6 4.8 0.00 0.00 0.00 72 1017.8
20260830223018 27 225 1.6 8.0 0.00 0.00 0.00 72 1018.0
20260830222517 27 225 3.2 6.4 0.00 0.00 0.00 71 1018.0
20260830222017 27 248 1.6 9.7 0.00 0.00 0.00 71 1018.0
20260830221517 27 45 3.2 8.0 0.00 0.00 0.00 71 1017.9
20260830221017 27 248 3.2 6.4 0.00 0.00 0.00 70 1018.1
20260830220518 27 248 3.2 8.0 0.00 0.00 0.00 70 1018.1
20260830220018 27 248 3.2 8.0 0.00 0.00 0.00 70 1018.1
20260830215518 27 248 1.6 4.8 0.00 0.00 0.00 70 1018.1
20260830215017 27 293 3.2 6.4 0.00 0.00 0.00 70 1018.0
20260830214518 27 225 3.2 8.0 0.00 0.00 0.00 70 1017.9
20260830214017 27 225 1.6 6.4 0.00 0.00 0.00 70 1018.1
20260830213517 27 203 4.8 8.0 0.00 0.00 0.00 70 1018.0
20260830213018 27 270 4.8 9.7 0.00 0.00 0.00 70 1018.0
20260830212538 27 315 3.2 6.4 0.00 0.00 0.00 70 1017.9
20260830212017 27 270 3.2 9.7 0.00 0.00 0.00 70 1018.0
20260830211518 27 270 3.2 6.4 0.00 0.00 0.00 70 1018.1
20260830211017 27 293 4.8 11.3 0.00 0.00 0.00 70 1018.1
20260830210537 27 270 3.2 9.7 0.00 0.00 0.00 69 1018.1
20260830210017 27 248 3.2 8.0 0.00 0.00 0.00 70 1018.2
20260830205537 27 248 3.2 11.3 0.00 0.00 0.00 70 1018.2
20260830205038 27 293 4.8 11.3 0.00 0.00 0.00 70 1018.2
20260830204518 27 338 4.8 11.3 0.00 0.00 0.00 70 1018.2
20260830204017 27 293 6.4 12.9 0.00 0.00 0.00 69 1018.2
20260830203518 27 248 4.8 12.9 0.00 0.00 0.00 69 1018.2
20260830203016 27 248 8.0 16.1 0.00 0.00 0.00 69 1018.3
20260830202517 27 225 6.4 16.1 0.00 0.00 0.00 70 1018.4
20260830202037 27 248 6.4 14.5 0.00 0.00 0.00 70 1018.5
20260830201517 27 248 3.2 14.5 0.00 0.00 0.00 71 1018.4
20260830201016 27 270 4.8 12.9 0.00 0.00 0.00 70 1018.5
20260830200517 27 225 4.8 11.3 0.00 0.00 0.00 71 1018.4
20260830200017 27 225 6.4 16.1 0.00 0.00 0.00 72 1018.6
20260830195517 26 225 4.8 11.3 0.00 0.00 0.00 73 1018.6
20260830195017 26 225 3.2 8.0 0.00 0.00 0.00 74 1018.6
20260830194517 26 225 6.4 12.9 0.00 0.00 0.00 74 1018.8
20260830194037 26 248 3.2 12.9 0.00 0.00 0.00 75 1018.8
20260830193517 26 248 1.6 8.0 0.00 0.00 0.00 75 1018.9
20260830193017 26 225 4.8 6.4 0.00 0.00 0.00 74 1018.9
20260830192517 26 225 1.6 6.4 0.00 0.00 0.00 75 1018.9
20260830192018 26 225 1.6 4.8 0.00 0.00 0.00 75 1019.0
20260830191517 26 225 3.2 4.8 0.00 0.00 0.00 74 1019.1
20260830191017 26 225 3.2 6.4 0.00 0.00 0.00 73 1019.1
20260830190517 26 225 1.6 6.4 0.00 0.00 0.00 74 1019.3
20260830190017 26 225 3.2 8.0 0.00 0.00 0.00 70 1019.4
20260830185517 26 225 1.6 6.4 0.00 0.00 0.00 70 1019.4
20260830185017 26 0.0 4.8 0.00 0.00 0.00 70 1019.7
20260830184517 26 203 1.6 8.0 0.00 0.00 0.00 70 1019.7
20260830184017 26 158 1.6 6.4 0.00 0.00 0.00 70 1019.7
20260830183516 26 158 3.2 9.7 0.00 0.00 0.00 71 1019.7
20260830183018 26 225 3.2 9.7 0.00 0.00 0.00 71 1019.7
20260830182600 26 203 3.2 12.9 0.00 0.00 0.00 71 1019.8
20260830182018 26 225 6.4 14.5 0.00 0.00 0.00 71 1020.0
20260830181517 26 225 4.8 11.3 0.00 0.00 0.00 71 1020.0
20260830181017 26 225 4.8 9.7 0.00 0.00 0.00 70 1020.0
20260830180517 26 225 6.4 11.3 0.00 0.00 0.00 70 1020.1
20260830180017 26 225 6.4 14.5 0.00 0.00 0.00 69 1020.1
20260830175518 26 203 6.4 11.3 0.00 0.00 0.00 70 1020.2
20260830175016 26 225 6.4 14.5 0.00 0.00 0.00 69 1020.2
20260830174517 26 225 8.0 17.7 0.00 0.00 0.00 68 1020.3
20260830174037 26 248 6.4 14.5 0.00 0.00 0.00 68 1020.4
20260830173539 26 225 6.4 11.3 0.00 0.00 0.00 67 1020.4
20260830173016 26 225 3.2 9.7 0.00 0.00 0.00 67 1020.5
20260830172538 26 203 6.4 12.9 0.00 0.00 0.00 66 1020.5
20260830172016 27 203 6.4 16.1 0.00 0.00 0.00 65 1020.5
20260830171538 27 225 3.2 9.7 0.00 0.00 0.00 64 1020.6
20260830171017 27 225 8.0 16.1 0.00 0.00 0.00 64 1020.6
20260830170516 27 225 6.4 17.7 0.00 0.00 0.00 64 1020.6
20260830170037 27 203 4.8 11.3 0.00 0.00 0.00 65 1020.6
20260830165518 27 225 4.8 12.9 0.00 0.00 0.00 65 1020.7
20260830165016 26 248 8.0 20.9 0.00 0.00 0.00 67 1020.7
20260830164516 26 248 4.8 11.3 0.00 0.00 0.00 69 1020.8
20260830164037 25 225 6.4 19.3 0.00 0.00 0.00 69 1020.9
20260830163516 25 225 6.4 12.9 0.00 0.00 0.00 70 1020.9
20260830163016 25 225 4.8 12.9 0.00 0.00 0.00 71 1020.9
20260830162516 25 225 6.4 12.9 0.00 0.00 0.00 71 1021.0
20260830162017 25 225 8.0 14.5 0.00 0.00 0.00 71 1021.2
20260830161517 25 225 8.0 16.1 0.00 0.00 0.00 71 1021.2
20260830161017 25 203 4.8 17.7 0.00 0.00 0.00 70 1021.1
20260830160536 25 225 8.0 12.9 0.00 0.00 0.00 69 1021.3
20260830160037 25 225 9.7 16.1 0.00 0.00 0.00 68 1021.3
20260830155516 26 225 8.0 19.3 0.00 0.00 0.00 68 1021.3
20260830155037 26 225 9.7 17.7 0.00 0.00 0.00 67 1021.3
20260830154618 25 225 11.3 24.1 0.00 0.00 0.00 67 1021.4
20260830154016 25 225 6.4 16.1 0.00 0.00 0.00 69 1021.3
20260830153516 25 225 8.0 19.3 0.00 0.00 0.00 69 1021.3
20260830153016 25 225 9.7 20.9 0.00 0.00 0.00 69 1021.5
20260830152516 25 225 11.3 20.9 0.00 0.00 0.00 69 1021.8
20260830152016 25 225 9.7 19.3 0.00 0.00 0.00 69 1021.8
20260830151516 25 225 6.4 16.1 0.00 0.00 0.00 70 1021.9
20260830151016 25 203 6.4 19.3 0.00 0.00 0.00 70 1021.8
20260830150516 25 225 8.0 16.1 0.00 0.00 0.00 69 1021.8
20260830150018 25 225 8.0 19.3 0.00 0.00 0.00 68 1021.8
20260830145517 25 225 6.4 16.1 0.00 0.00 0.00 68 1021.9
20260830145017 25 203 4.8 11.3 0.00 0.00 0.00 67 1021.9
20260830144517 25 225 4.8 11.3 0.00 0.00 0.00 67 1022.0
20260830144016 25 225 3.2 11.3 0.00 0.00 0.00 67 1022.0
20260830143518 25 225 6.4 14.5 0.00 0.00 0.00 67 1022.1
20260830143016 25 225 8.0 17.7 0.00 0.00 0.00 66 1022.0
20260830142517 25 225 9.7 20.9 0.00 0.00 0.00 64 1022.0
20260830142017 25 225 8.0 16.1 0.00 0.00 0.00 64 1022.0
20260830141517 25 225 8.0 17.7 0.00 0.00 0.00 65 1022.0
20260830141016 25 225 6.4 17.7 0.00 0.00 0.00 66 1022.1
20260830140516 25 225 3.2 8.0 0.00 0.00 0.00 67 1022.0
20260830140017 24 225 4.8 9.7 0.00 0.00 0.00 66 1022.1
20260830135517 24 225 3.2 11.3 0.00 0.00 0.00 67 1022.3
20260830135038 23 225 6.4 12.9 0.00 0.00 0.00 67 1022.3
20260830134536 23 225 3.2 12.9 0.00 0.00 0.00 67 1022.4
20260830134037 23 225 4.8 14.5 0.00 0.00 0.00 68 1022.5
20260830133516 23 203 4.8 12.9 0.00 0.00 0.00 69 1022.6
20260830133037 23 225 6.4 14.5 0.00 0.00 0.00 69 1022.7
20260830132517 23 225 6.4 14.5 0.00 0.00 0.00 69 1022.8
20260830132016 23 225 6.4 14.5 0.00 0.00 0.00 69 1022.8
20260830131517 23 225 6.4 12.9 0.00 0.00 0.00 70 1022.7
20260830131016 22 225 6.4 12.9 0.00 0.00 0.00 71 1022.8
20260830130516 22 225 6.4 12.9 0.00 0.00 0.00 72 1022.8
20260830130017 22 225 3.2 6.4 0.00 0.00 0.00 73 1022.8
20260830125516 22 225 4.8 14.5 0.00 0.00 0.00 73 1022.8
20260830125017 22 225 6.4 11.3 0.00 0.00 0.00 72 1022.8
20260830124516 22 248 4.8 11.3 0.00 0.00 0.00 70 1022.9
20260830124016 21 225 6.4 12.9 0.00 0.00 0.00 70 1022.9
20260830123516 21 225 6.4 12.9 0.00 0.00 0.00 71 1023.0
20260830123016 21 225 3.2 8.0 0.00 0.00 0.00 72 1023.0
20260830122516 21 248 3.2 11.3 0.00 0.00 0.00 73 1023.0
20260830122016 21 248 3.2 11.3 0.00 0.00 0.00 75 1023.0
20260830121516 21 248 4.8 9.7 0.00 0.00 0.00 75 1023.0
20260830121016 21 203 3.2 6.4 0.00 0.00 0.00 75 1022.9
20260830120516 21 225 1.6 6.4 0.00 0.00 0.00 75 1022.9
20260830120017 20 315 1.6 4.8 0.00 0.00 0.00 75 1022.9
20260830115516 20 315 3.2 4.8 0.00 0.00 0.00 75 1022.8
20260830115017 20 315 1.6 4.8 0.00 0.00 0.00 76 1022.8
20260830114537 20 315 1.6 4.8 0.00 0.00 0.00 76 1022.8
20260830114036 20 315 1.6 6.4 0.00 0.00 0.00 77 1022.8
20260830113516 20 315 1.6 6.4 0.00 0.00 0.00 76 1022.9
20260830113016 20 315 3.2 4.8 0.00 0.00 0.00 75 1022.9
20260830112517 20 315 1.6 4.8 0.00 0.00 0.00 74 1022.9
20260830112016 20 0.0 0.0 0.00 0.00 0.00 74 1022.8
20260830111537 20 0.0 0.0 0.00 0.00 0.00 74 1022.8
20260830111017 20 0.0 0.0 0.00 0.00 0.00 74 1022.7
20260830110517 20 0.0 0.0 0.00 0.00 0.00 74 1022.7
20260830110017 20 0.0 0.0 0.00 0.00 0.00 74 1022.7
20260830105516 20 0.0 0.0 0.00 0.00 0.00 74 1022.7
20260830105016 20 0.0 0.0 0.00 0.00 0.00 74 1022.7
20260830104516 20 0.0 0.0 0.00 0.00 0.00 74 1022.6
20260830104016 20 0.0 0.0 0.00 0.00 0.00 74 1022.5
20260830103516 20 0.0 0.0 0.00 0.00 0.00 73 1022.5
20260830103016 20 0.0 0.0 0.00 0.00 0.00 73 1022.5
20260830102516 20 0.0 0.0 0.00 0.00 0.00 73 1022.6
20260830102016 20 0.0 0.0 0.00 0.00 0.00 73 1022.5
20260830101516 20 0.0 1.6 0.00 0.00 0.00 73 1022.6
20260830101016 20 248 1.6 4.8 0.00 0.00 0.00 73 1022.6
20260830100516 20 270 1.6 4.8 0.00 0.00 0.00 74 1022.6
20260830100017 20 270 4.8 9.7 0.00 0.00 0.00 75 1022.6
20260830095537 20 293 3.2 6.4 0.00 0.00 0.00 76 1022.7
20260830095016 20 0.0 3.2 0.00 0.00 0.00 76 1022.6
20260830094516 20 0.0 4.8 0.00 0.00 0.00 77 1022.6
20260830094017 20 0.0 3.2 0.00 0.00 0.00 77 1022.7
20260830093516 19 0.0 1.6 0.00 0.00 0.00 77 1022.7
20260830093016 19 0.0 1.6 0.00 0.00 0.00 77 1022.7
20260830092517 20 0.0 1.6 0.00 0.00 0.00 77 1022.7
20260830092016 20 0.0 1.6 0.00 0.00 0.00 77 1022.7
20260830091516 20 0.0 0.0 0.00 0.00 0.00 77 1022.6
20260830091016 19 0.0 0.0 0.00 0.00 0.00 78 1022.6
20260830090516 19 0.0 0.0 0.00 0.00 0.00 78 1022.6
20260830090015 19 0.0 4.8 0.00 0.00 0.00 79 1022.6
20260830085538 19 293 3.2 9.7 0.00 0.00 0.00 80 1022.6
20260830085015 19 248 1.6 6.4 0.00 0.00 0.00 82 1022.6
20260830084516 19 0.0 3.2 0.00 0.00 0.00 82 1022.7
20260830084017 19 248 1.6 3.2 0.00 0.00 0.00 82 1022.7
20260830083516 19 248 1.6 4.8 0.00 0.00 0.00 83 1022.9
20260830083035 19 248 1.6 4.8 0.00 0.00 0.00 83 1022.9
20260830082515 19 248 1.6 4.8 0.00 0.00 0.00 83 1022.8
20260830082016 19 248 3.2 9.7 0.00 0.00 0.00 84 1022.8
20260830081517 19 203 1.6 4.8 0.00 0.00 0.00 84 1022.8
20260830081016 19 203 3.2 6.4 0.00 0.00 0.00 84 1022.9
20260830080516 19 248 3.2 9.7 0.00 0.00 0.00 83 1023.0
20260830080016 19 248 3.2 6.4 0.00 0.00 0.00 83 1023.0
20260830075516 19 248 1.6 3.2 0.00 0.00 0.00 83 1023.0
20260830075015 19 248 1.6 3.2 0.00 0.00 0.00 83 1022.9
20260830074516 19 0.0 3.2 0.00 0.00 0.00 83 1023.0
20260830074016 20 0.0 1.6 0.00 0.00 0.00 82 1023.0
20260830073515 20 248 1.6 4.8 0.00 0.00 0.00 82 1023.1
20260830073016 20 248 1.6 4.8 0.00 0.00 0.00 82 1023.0
20260830072516 20 225 1.6 6.4 0.00 0.00 0.00 81 1023.1
20260830072036 20 225 3.2 6.4 0.00 0.00 0.00 81 1023.2
20260830071516 20 225 1.6 6.4 0.00 0.00 0.00 81 1023.1
20260830071035 20 225 1.6 8.0 0.00 0.00 0.00 81 1023.1
20260830070516 20 203 1.6 3.2 0.00 0.00 0.00 81 1023.1
20260830070015 20 0.0 3.2 0.00 0.00 0.00 81 1023.1
20260830065536 20 203 1.6 6.4 0.00 0.00 0.00 80 1023.1
20260830065016 20 225 3.2 8.0 0.00 0.00 0.00 80 1023.1
20260830064516 20 225 1.6 8.0 0.00 0.00 0.00 80 1023.0
20260830064037 20 225 1.6 4.8 0.00 0.00 0.00 79 1023.0
20260830063516 20 225 1.6 6.4 0.00 0.00 0.00 79 1023.1
20260830063015 20 0.0 3.2 0.00 0.00 0.00 79 1023.1
20260830062515 20 0.0 3.2 0.00 0.00 0.00 78 1023.0
20260830062016 20 0.0 3.2 0.00 0.00 0.00 78 1023.1
20260830061515 20 225 1.6 4.8 0.00 0.00 0.00 78 1023.1
20260830061037 20 248 1.6 4.8 0.00 0.00 0.00 78 1023.1
20260830060515 20 248 1.6 3.2 0.00 0.00 0.00 78 1023.0
20260830060015 20 248 3.2 11.3 0.00 0.00 0.00 78 1023.1
20260830055516 20 270 4.8 11.3 0.00 0.00 0.00 78 1023.1
20260830055017 20 248 4.8 8.0 0.00 0.00 0.00 78 1023.1
20260830054537 20 248 4.8 14.5 0.00 0.00 0.00 77 1023.0
20260830054015 20 203 3.2 9.7 0.00 0.00 0.00 77 1023.0
20260830053515 20 225 3.2 8.0 0.00 0.00 0.00 77 1022.9
20260830053016 20 203 3.2 8.0 0.00 0.00 0.00 77 1022.9